sat.trackr.live / text

‹ back to catalog

STARLINK-36932

NORAD 68331 · 2026-059L

PAYLOAD ACTIVE UNKNOWN

§ Identity

Operator
Country
US
Launch date
2026-03-22
Launch site
AFETR
Launch vehicle
Mass (kg)
RCS (m²)

Purposes: comms

External: N2YO · Heavens-Above · Gunter

§ Orbital elements

Epoch: 2026-09-20T00:17:58.405056Z

Period
93.85 min
Inclination
53.1560°
Eccentricity
0.0001009
Mean motion
15.34403653 rev/d
Perigee alt
462.0 km
Apogee alt
463.4 km
Semi-major
6,840.8 km
B*
3.6383e-4
RAAN
158.0923°
Arg perigee
78.9642°
Mean anomaly
281.1474°
Rev number
2,803

§ Raw data

STARLINK-369321 68331U 26059L   26263.01248154  .00011937  00000+0  36383-3 0  99932 68331  53.1560 158.0923 0001009  78.9642 281.1474 15.34403653 28031

JSON: /api/v1/satellites/68331 · /tle

For live sub-satellite position, see the globe view (requires WebGL).

§ Visibility from observer

Set your observer location to see the next 7 days of passes ≥ 10°. The values pass through the URL so the page stays shareable.

No JS? Fill the form by hand. The geolocation button needs JavaScript.